This is the latest recevied weather packets stored in our database for station/object DL1GHN-6. If no packets are shown the sender has not sent any weather packets the latest 10 day(s).
| Time | Temp. | Humidity | Pressure | Rain* | Wind** | Luminosity | Snow |
|---|---|---|---|---|---|---|---|
| 1777638625 | 23.89° C | 29% | 1023.7 hPa | 0 mm | - | 791 W/m² | - |
| 1777638325 | 23.89° C | 31% | 1023.8 hPa | 0 mm | - | 796 W/m² | - |
| 1777638025 | 23.33° C | 33% | 1023.9 hPa | 0 mm | - | 802 W/m² | - |
| 1777637725 | 23.33° C | 36% | 1023.9 hPa | 0 mm | - | 803 W/m² | - |
| 1777637425 | 23.33° C | 30% | 1024 hPa | 0 mm | - | 807 W/m² | - |
| 1777637124 | 23.33° C | 33% | 1024 hPa | 0 mm | - | 810 W/m² | - |
| 1777636824 | 22.78° C | 37% | 1024 hPa | 0 mm | - | 812 W/m² | - |
| 1777636523 | 22.78° C | 34% | 1024.1 hPa | 0 mm | - | 814 W/m² | - |
| 1777636223 | 22.22° C | 31% | 1024.1 hPa | 0 mm | - | 814 W/m² | - |
| 1777635923 | 22.22° C | 33% | 1024.2 hPa | 0 mm | - | 817 W/m² | - |
| 1777635623 | 22.22° C | 33% | 1024.3 hPa | 0 mm | - | 814 W/m² | - |
| 1777635324 | 22.22° C | 33% | 1024.3 hPa | 0 mm | - | 819 W/m² | - |
| 1777635024 | 22.22° C | 32% | 1024.4 hPa | 0 mm | - | 817 W/m² | - |
| 1777634723 | 22.22° C | 33% | 1024.4 hPa | 0 mm | - | 821 W/m² | - |
| 1777634425 | 21.67° C | 31% | 1024.5 hPa | 0 mm | - | 821 W/m² | - |
| 1777634124 | 21.67° C | 32% | 1024.4 hPa | 0 mm | - | 821 W/m² | - |
| 1777633824 | 21.67° C | 34% | 1024.5 hPa | 0 mm | - | 817 W/m² | - |
| 1777633524 | 21.67° C | 32% | 1024.6 hPa | 0 mm | - | 817 W/m² | - |
| 1777633224 | 20.56° C | 33% | 1024.7 hPa | 0 mm | - | 816 W/m² | - |
| 1777632925 | 20.56° C | 34% | 1024.8 hPa | 0 mm | - | 816 W/m² | - |
| 1777632624 | 20.56° C | 34% | 1024.8 hPa | 0 mm | - | 814 W/m² | - |
| 1777632325 | 20.56° C | 31% | 1024.9 hPa | 0 mm | - | 810 W/m² | - |
| 1777632024 | 20.56° C | 38% | 1025 hPa | 0 mm | - | 807 W/m² | - |
| 1777631724 | 20.56° C | 36% | 1024.9 hPa | 0 mm | - | 802 W/m² | - |
| 1777631424 | 20° C | 32% | 1025 hPa | 0 mm | - | 798 W/m² | - |
* Rain latest hour (hover to see other rain measurements)
** Current wind speed in m/s (hover to see current wind gust speed)